Location: Glennes
(49.3551°N, 3.7150°E)
Time: 01:58:11
(UTC+00:00)

Daily predictions for brighter satellites

Satellite Brightness Start Highest point End
(mag) Time Altitude Azimuth Time Altitude Azimuth Time Altitude Azimuth
CENTAUR R/B 3.9 02:45:10 47° NE 02:45:10 47° NE 02:52:28 10° ESE
USA 238 DEB 4.3 03:18:26 55° ESE 03:18:26 55° ESE 03:24:15 10° SE
USA 238 4.3 03:18:30 55° ESE 03:18:30 55° ESE 03:24:21 10° SE
Lacrosse 4 Rocket 4.4 03:22:25 15° ENE 03:22:25 15° ENE 03:23:33 10° E
Cosmos 2297 Rocket 4.2 03:32:24 19° NNE 03:32:24 19° NNE 03:34:01 10° NNE
ALOS 4.1 03:35:38 10° NE 03:39:40 28° E 03:40:31 27° ESE
Cosmos 2263 Rocket 3.7 03:46:18 17° SSE 03:49:54 34° ESE 03:54:58 10° NE
SJ 16-02 4.0 03:58:21 10° SE 04:01:24 18° E 04:04:28 10° NE
ATLAS 3B R/B 3.6 03:59:42 33° N 04:01:56 41° NNE 04:08:35 10° ESE
Cosmos 1603 3.7 04:08:24 75° ENE 04:08:24 75° ENE 04:14:00 10° SE
FENGYUN 3A 4.2 04:06:32 10° NNE 04:11:54 58° E 04:17:13 10° S
COSMO-SKYMED 1 4.0 04:08:24 10° SE 04:12:23 36° ENE 04:13:49 28° NNE
Cosmos 1386 Rocket 4.4 04:11:11 10° S 04:17:35 90° W 04:23:58 10° N
Cosmos 1943 3.2 04:17:13 66° N 04:17:59 78° ENE 04:23:42 10° SSE
ADEOS 4.1 04:14:28 10° NNE 04:19:40 59° ESE 04:24:48 10° S
Cosmos 1933 4.2 04:21:48 49° E 04:21:48 49° E 04:25:26 10° SSE
NOSS 3-2 (C) 3.9 04:20:32 54° WNW 04:22:31 75° SW 04:31:00 10° SSE
ATLAS CENTAUR R/B 3.3 04:23:42 20° NNE 04:23:42 20° NNE 04:26:33 10° E
Cosmos 1777 Rocket 4.0 04:23:33 60° S 04:24:27 77° ESE 04:29:41 10° NNE
NOSS 3-4 (A) 4.4 04:19:51 10° S 04:25:21 43° ESE 04:31:15 10° NE
NOSS 3-4 (C) 4.4 04:19:58 10° S 04:25:29 43° ESE 04:31:22 10° NE
Nadezhda 1 Rocket 4.0 04:28:56 59° WSW 04:28:56 59° WSW 04:34:39 10° S
Meteor 1-4 Rocket 3.9 04:31:52 37° E 04:31:52 37° E 04:34:56 10° SE
Cosmos 2084 4.3 04:33:10 42° S 04:33:10 42° S 04:36:18 10° SSE
SL-4 R/B 2.6 04:33:39 52° E 04:33:39 52° E 04:36:37 10° ENE
Cosmos 2082 4.4 04:35:29 38° NNW 04:35:29 38° NNW 04:39:43 10° NNE
Meteor 1-31 Rocket 3.3 04:30:43 10° NNE 04:34:32 57° E 04:35:13 48° SE
Cosmos 1782 4.4 04:31:44 16° NNE 04:34:32 34° ENE 04:38:14 10° SE
Cosmos 1538 Rocket 3.9 04:35:15 72° WSW 04:35:17 72° WSW 04:40:32 10° SSE
CENTAUR R/B 3.1 04:32:23 43° WNW 04:35:21 67° SW 04:44:06 10° SSE
Cosmos 2227 Rocket 3.6 04:40:17 23° NNW 04:40:17 23° NNW 04:43:15 10° NNE
Cosmos 158 Rocket 4.3 04:37:07 30° N 04:39:22 58° ENE 04:44:15 10° SE
Cosmos 2227 4.2 04:36:02 19° SSW 04:40:06 78° ESE 04:45:45 10° NNE
ARGOS Delta rocket 3.8 04:36:32 10° N 04:41:48 77° WNW 04:46:44 10° SSW
ATLAS 2AS CENTAUR R/B 3.7 04:37:24 10° SSW 04:45:03 54° ESE 04:52:39 10° NE
deb Chang Zheng 4 3.8 04:41:12 10° NNE 04:45:32 71° ESE 04:49:53 10° S
Cosmos 489 Rocket 4.5 04:45:08 46° WNW 04:46:40 57° WSW 04:52:49 10° S
NOSS 3-2 (A) 4.5 04:50:27 37° W 04:51:42 39° WSW 04:59:21 10° S
Cosmos 1633 2.5 04:53:18 10° S 04:56:49 80° E 05:00:22 10° NNE
Gbstr 26 Del rocket 2.5 04:56:52 82° NNW 04:56:59 84° NNE 05:00:51 10° ESE
FALCON 9 DEB 3.7 04:57:31 48° NNE 04:57:31 48° NNE 05:00:25 10° ENE
USA 307 3.2 04:57:31 49° NNW 04:57:45 50° N 05:01:58 10° ENE
Cosmos 1515 Rocket 4.4 04:53:56 10° N 04:58:19 52° ENE 05:02:41 10° SSE
Lacrosse 4 Rocket 1.3 04:58:45 58° NW 04:59:32 80° WSW 05:03:55 10° SSE
SKYMED 2 3.4 04:56:01 10° S 05:00:22 79° WSW 05:02:27 30° NNW
METEOR-M 4.0 04:57:40 10° N 05:03:00 71° WNW 05:08:18 10° SSW
Cosmos 1184 Rocket 2.9 05:00:35 10° S 05:03:51 75° ESE 05:07:09 10° NNE
USA 308 3.3 05:03:29 46° NNW 05:03:59 48° N 05:08:11 10° ENE
SAR-Lupe-4 3.7 05:00:57 10° S 05:03:59 55° SW 05:03:59 55° SW
USA 238 DEB 4.5 05:05:56 31° W 05:07:20 33° WSW 05:13:52 10° S
USA 238 4.5 05:06:00 31° W 05:07:27 34° WSW 05:13:59 10° S
Cosmos 1461 3.6 05:09:38 40° WSW 05:09:56 40° WSW 05:14:12 10° S
Cosmos 1745 Rocket 4.4 05:07:57 19° SW 05:11:50 38° WNW 05:17:44 10° N
CZ-4B R/B 3.1 05:08:01 10° NNE 05:12:34 84° E 05:17:02 10° SSW
Meteor 1-26 Rocket 4.2 05:07:18 10° NNW 05:13:09 72° W 05:18:47 10° S
Cosmos 2297 Rocket 3.9 05:14:13 16° NNW 05:14:13 16° NNW 05:17:13 10° N
Cosmos 1151 Rocket 3.0 05:12:35 31° NNW 05:14:24 57° W 05:18:34 10° S
ALOS 2.6 05:12:50 10° N 05:17:12 39° WNW 05:18:59 28° WSW
Cosmos 1689 Rocket 2.9 05:14:31 10° S 05:16:25 36° SSW 05:16:25 36° SSW
H-2A R/B 3.5 05:16:11 10° NNE 05:20:05 56° E 05:23:54 10° S
BREEZE-M DEB (TANK) 3.9 05:16:30 26° W 05:20:47 56° SSW 05:24:05 10° SE
SAR-Lupe-1 4.4 05:18:13 10° S 05:21:35 42° WSW 05:21:35 42° WSW
CZ-4C R/B 3.1 05:19:24 10° SSW 05:24:08 47° ESE 05:29:48 10° NE
CZ-2C R/B 4.5 05:21:24 10° NNW 05:21:26 10° NNW 05:21:26 10° NNW
Cosmos 1328 Rocket 3.7 05:22:02 19° NNW 05:25:02 52° W 05:29:20 10° S
ERBS 2.4 05:25:08 46° NW 05:25:27 48° NNW 05:28:41 10° NE
CRYOSAT 2 4.4 05:20:53 10° S 05:25:38 55° W 05:30:26 10° NNW
Cosmos 2181 Rocket 4.0 05:19:41 10° NNW 05:25:47 58° W 05:31:47 10° S
BREEZE-M DEB (TANK) 3.7 05:25:50 20° SW 05:27:22 38° SSE 05:31:18 10° E
Lacrosse 5 2.5 05:24:38 10° SW 05:29:36 58° SE 05:34:35 10° ENE
Cosmos 2263 Rocket 2.4 05:28:12 10° SW 05:33:40 48° NW 05:39:12 10° NNE
USA 305 3.5 05:32:40 28° WNW 05:34:30 44° N 05:38:39 10° ENE
Meteor PRIRODA 3.6 05:30:59 10° N 05:34:41 61° WNW 05:38:21 10° SSW
PSLV R/B 4.2 05:31:36 10° S 05:35:35 44° W 05:38:31 17° NNW
Cosmos 1709 Rocket 4.3 05:31:24 10° SW 05:37:24 42° WNW 05:43:27 10° N
Meteor 2-3 Rocket 3.8 05:33:40 10° SSW 05:39:16 55° WNW 05:44:57 10° N
SJ 16-02 1.4 05:35:13 10° SW 05:39:34 55° WNW 05:43:57 10° NNE
BREEZE-M DEB 4.2 05:31:42 19° WNW 05:39:47 61° SSW 05:43:28 10° SE
Cosmos 923 Rocket 4.3 05:37:01 17° NW 05:40:51 45° WSW 05:45:53 10° S
Okean 3 Rocket 4.1 05:37:03 10° SW 05:41:04 35° WNW 05:45:08 10° N
ASTRO F (AKARI) 4.0 05:38:15 10° NNE 05:41:22 81° WNW 05:44:28 10° SSW
Cosmos 1766 Rocket 4.1 05:38:37 10° SW 05:42:46 36° WNW 05:46:55 10° N
USA 306 3.5 05:40:35 24° WNW 05:42:47 44° N 05:46:55 10° ENE
Cosmos 1862 3.9 05:39:19 10° S 05:43:19 62° E 05:47:20 10° NNE
SJ-12 4.4 05:42:34 10° N 05:46:17 35° WNW 05:49:59 10° SW
Cosmos 2082 Rocket 4.3 05:42:13 10° N 05:46:20 20° NE 05:50:27 10° E
Cosmos 1743 Rocket 3.7 05:42:40 10° S 05:47:06 82° E 05:51:37 10° NNE
COSMO-SKYMED 1 3.5 05:44:56 10° SSW 05:48:37 27° W 05:51:01 17° NW
Cosmos 1408 Rocket 3.7 05:47:15 10° SSW 05:51:36 50° WNW 05:55:58 10° N
CZ-2C R/B 3.3 05:46:31 10° SSE 05:51:54 60° ENE 05:57:13 10° N
ATLAS 3B R/B 2.8 05:46:59 14° NW 05:53:04 68° SW 06:00:11 10° SSE
Cosmos 990 Rocket 3.9 05:49:10 10° SSW 05:54:25 81° WNW 05:59:42 10° NNE
Spot 2 4.5 05:51:10 10° NNE 05:56:22 86° WNW 06:01:29 10° SSW
PSLV R/B 3.7 05:54:05 10° N 05:58:00 71° WNW 06:01:48 10° SSW
COSMOS 2406 4.5 05:52:41 10° NNW 05:58:02 38° NE 06:03:22 10° ESE
EO 1 Delta rocket 4.1 05:55:15 10° S 06:00:17 50° W 06:04:49 10° NNW
ATLAS CENTAUR R/B 1.1 05:59:53 15° NW 06:02:57 73° SW 06:06:51 10° SSE
Cosmos 1833 Rocket 4.1 05:58:38 10° NNW 06:03:46 34° NE 06:08:52 10° ESE
ATLAS 5 CENTAUR R/B 3.2 06:01:57 15° WNW 06:03:51 20° NW 06:05:56 10° NNE
Cosmos 2327 Rocket 4.4 05:58:40 10° S 06:04:47 87° W 06:10:55 10° N
Cosmos 2074 Rocket 4.0 05:59:37 10° SSW 06:05:44 61° WNW 06:11:54 10° N
MOS 1 Rocket 3.7 06:01:49 10° S 06:06:23 47° W 06:11:17 10° NNW
Meteor 1-4 Rocket 4.1 06:06:07 15° W 06:06:24 15° W 06:08:31 10° SW
Cosmos 1805 Rocket 4.0 06:02:31 10° S 06:06:55 67° E 06:11:22 10° NNE
Meteor 1-31 Rocket 4.3 06:06:11 10° NNW 06:08:31 16° WNW 06:10:32 11° W
NOAA 6 4.0 06:04:25 10° NNE 06:09:34 82° WNW 06:14:41 10° SSW
Cosmos 1680 Rocket 4.2 06:05:05 10° NW 06:09:52 34° WSW 06:14:37 10° SSW
Cosmos 1782 4.0 06:07:29 10° NW 06:10:40 23° W 06:13:51 10° SW
FALCON 9 DEB 3.9 06:07:48 10° SW 06:10:53 48° SSE 06:14:01 10° ENE
SMAP 3.4 06:06:52 10° NNE 06:11:33 73° ESE 06:16:12 10° S
SL-4 R/B 1.9 06:09:15 14° W 06:12:33 60° N 06:16:09 10° ENE
H-2A R/B 2.2 06:09:33 10° N 06:13:26 71° WNW 06:17:15 10° SSW
FALCON 9 DEB 3.7 06:10:20 10° SW 06:13:28 53° SSE 06:16:38 10° ENE
RESURS DK-1 2.3 06:11:12 10° SW 06:15:22 76° WNW 06:19:34 10° NNE
NOSS 3-4 (A) 3.7 06:10:22 10° WSW 06:16:11 50° NW 06:22:30 10° NE
NOSS 3-4 (C) 3.7 06:10:28 10° WSW 06:16:18 50° NW 06:22:37 10° NE
Cosmos 2184 Rocket 4.2 06:13:45 10° SSW 06:19:52 51° WNW 06:26:05 10° N
Cosmos 2228 Rocket 3.3 06:15:41 10° NNW 06:19:58 48° W 06:24:12 10° SSW
Genesis I 3.3 06:16:45 10° SW 06:20:34 81° SE 06:24:26 10° NE
Cosmos 405 Rocket 2.7 06:19:20 10° SSW 06:22:57 56° WNW 06:26:40 10° N
USA 234 3.4 06:16:52 10° ENE 06:23:27 82° SSE 06:30:01 10° SW
Cosmos 1295 Rocket 4.4 06:18:07 10° SSW 06:24:12 80° W 06:30:20 10° N
CENTAUR R/B 4.5 06:19:39 10° WNW 06:25:03 19° WSW 06:30:40 10° SW
Cosmos 1812 3.4 06:25:04 10° NNW 06:28:35 34° W 06:32:04 10° SSW
EXPRESS MD2 4.3 06:27:22 10° WNW 06:31:23 78° SSW 06:39:50 10° ESE
FALCON 9 DEB 3.3 06:29:49 10° SW 06:33:01 69° SSE 06:36:14 10° ENE
FALCON 9 DEB 3.7 06:30:57 10° WNW 06:34:21 46° N 06:37:42 10° E
Geosat 4.1 06:30:07 10° SSE 06:35:05 63° WSW 06:40:07 10° NW
ATLAS 2AS CENTAUR R/B 3.2 06:28:25 10° WSW 06:36:13 55° NW 06:43:50 10° NE
Lacrosse 4 Rocket 3.6 06:36:35 10° W 06:37:29 11° WSW 06:38:24 10° WSW
USA 307 3.4 06:34:06 10° WNW 06:38:19 49° N 06:42:31 10° E
USA-17 4.2 06:36:15 10° SW 06:39:50 74° NW 06:42:54 10° NE
Cosmos 372 Rocket 4.0 06:36:47 10° SSW 06:41:53 87° ESE 06:47:01 10° NNE
